Powrót do katalogu

STARLINK-36725

AktywnyŁącznośćVLEO
NORAD 68285·PAYLOAD·🇺🇸 United States

Wystrzelony Mar 19, 2026 z Vandenberg Space Force Base

Loading…

Następne Przeloty (najbliższe 24 godziny)

TLE

ŚwieżeSource: CelesTrak SupGP

Epoka: Sep 14, 2026, 22:41 UTC

1 68285C 26055Z   26257.94562500 -.00048635  00000+0 -14368-2 0  2578
2 68285  53.1562 157.7009 0001298  86.7140 213.9686 15.34418220    14

Śledź STARLINK-36725 w czasie rzeczywistym z AllMySat

Download on the App Store